Location: Melbourne
(37.8170°S, 144.9670°E)
Time: 08:09:37
(UTC+10:00)

Daily predictions for brighter satellites

Satellite Brightness Start Highest point End
(mag) Time Altitude Azimuth Time Altitude Azimuth Time Altitude Azimuth
Cosmos 482 Debris 4.4 18:00:11 10° NW 18:03:23 88° SW 18:09:09 10° SE
Ariane Rocket 3.0 17:59:11 10° SSE 18:04:21 72° ENE 18:09:26 10° N
Cosmos 1515 Rocket 3.8 18:01:40 10° S 18:06:05 76° W 18:10:26 10° N
Cosmos 2058 2.9 18:05:38 10° N 18:09:49 76° E 18:14:05 10° S
Cosmos 2034 Rocket 4.1 18:04:46 10° S 18:11:09 64° E 18:17:21 10° NNE
Meteor 1-11 4.4 18:06:00 10° N 18:11:50 86° E 18:17:44 10° S
SL-24 R/B - RUBIN 2 3.8 18:09:42 10° N 18:13:45 44° ENE 18:17:50 10° SE
Cosmos 1242 Rocket 3.0 18:10:02 10° SSW 18:13:48 69° W 18:17:31 10° N
Cosmos 2322 Rocket 2.4 18:12:53 10° SSW 18:18:37 79° WNW 18:24:14 10° NNE
IDEFIX/ARIANE 42P 2.6 18:14:25 10° SSE 18:19:45 80° ENE 18:24:58 10° N
COSMOS 2428 4.0 18:15:37 10° S 18:19:45 20° SE 18:23:51 10° E
SMAP 3.3 18:16:01 10° SSE 18:20:34 47° E 18:25:05 10° N
PAYLOAD A 4.4 18:21:20 10° S 18:26:06 65° WSW 18:30:57 10° NNW
Cosmos 1833 4.2 18:21:40 10° NNW 18:27:27 74° ENE 18:33:18 10° SSE
Cosmos 2360 Rocket 2.4 18:22:30 10° S 18:27:58 47° ESE 18:33:23 10° NE
SJ-12 4.0 18:24:16 10° SSE 18:28:28 89° E 18:32:39 10° NNW
Cosmos 1484 Rocket 3.4 18:25:17 10° SSE 18:28:43 32° E 18:32:07 10° NNE
CSL-04 Rocket 4.0 18:25:46 10° S 18:31:11 72° WSW 18:36:37 10° NNW
MSX 3.8 18:31:48 10° SSE 18:37:39 73° ENE 18:43:26 10° N
Cosmos 2322 3.9 18:33:18 10° SSW 18:38:55 50° ESE 18:44:29 10° NE
IRS-1A Rocket 4.2 18:33:15 10° SSE 18:38:57 82° ENE 18:44:29 10° NNW
Cosmos 1626 2.6 18:37:16 10° NNW 18:40:59 66° W 18:44:47 10° S
Cosmos 1992 Rocket 3.9 18:38:39 10° SSW 18:43:57 80° ESE 18:49:12 10° NNE
YAOGAN 1 2.5 18:40:45 10° SSE 18:45:09 65° ENE 18:49:28 10° N
SL-16 R/B 3.4 18:41:43 10° SW 18:47:09 45° WNW 18:52:31 10° N
Gbstr 26 Del rocket 4.1 18:42:43 10° WSW 18:47:30 57° NW 18:53:24 10° NNE
ATLAS CENTAUR R/B 3.7 18:46:12 10° SSE 18:48:13 12° SE 18:48:13 12° SE
CZ-4 R/B 1.6 18:45:07 10° S 18:49:17 73° WSW 18:53:19 10° NNW
Cosmos 1140 Rocket 4.4 18:48:29 10° NNE 18:52:34 24° E 18:53:04 24° E
Cosmos 1633 Rocket 3.1 18:48:28 10° N 18:52:45 56° E 18:57:05 10° SSE
Cosmos 1455 2.3 18:51:41 10° S 18:55:40 82° W 18:59:33 10° N
Cosmos 2219 3.4 18:53:00 10° N 18:58:30 51° ENE 19:04:01 10° SSE
Cosmos 2333 Rocket 3.6 18:55:44 10° S 18:59:34 19° SE 18:59:34 19° SE
Cosmos 2237 Rocket 4.0 19:00:06 10° SSE 19:02:17 14° SE 19:02:17 14° SE
CZ-2C R/B 3.9 19:00:27 10° S 19:05:06 39° WSW 19:09:50 10° NW
Cosmos 1707 Rocket 3.7 19:00:54 10° S 19:05:29 83° W 19:09:58 10° N
NOSS 3-1 (C) 3.2 19:03:22 10° SSW 19:09:45 83° ESE 19:14:55 13° NE
Cosmos 2142 Rocket 4.4 19:04:26 10° S 19:10:42 66° E 19:16:50 10° NNE
GPS 2-05 Rocket1 3.3 19:07:42 10° W 19:10:56 49° N 19:11:29 43° NNE
Cosmos 1666 Rocket 4.1 19:12:26 10° NNW 19:16:53 60° W 19:21:24 10° S
METEOR-M 4.4 19:12:14 10° SSE 19:17:25 45° E 19:22:31 10° N
Cosmos 676 Rocket 3.8 19:14:01 10° N 19:19:11 73° ENE 19:23:21 16° SSE
Cosmos 1869 3.4 19:16:30 10° S 19:20:33 78° W 19:24:31 10° N
Cosmos 2227 Rocket 4.1 19:16:35 10° NNE 19:17:17 13° NNE 19:17:17 13° NNE
ATLAS 2AS CENTAUR R/B 3.8 19:18:54 10° S 19:23:02 21° SE 19:23:02 21° SE
Cosmos 1954 Rocket 3.9 19:19:19 10° N 19:24:25 65° ENE 19:26:45 32° SE
NOSS 3-1 (A) 3.2 19:18:27 10° SSW 19:24:51 78° ESE 19:27:48 31° NE
BREEZE-M DEB 3.3 19:22:28 10° NW 19:25:56 45° NNE 19:25:56 45° NNE
Cosmos 1933 Rocket 3.7 19:22:48 10° N 19:26:30 53° NE 19:26:30 53° NE
Abrixas 4.2 19:28:57 10° WSW 19:30:43 30° W 19:30:43 30° W
SPOT 3 Rocket 4.1 19:26:48 10° S 19:31:59 58° WSW 19:37:06 10° NNW
Cosmos 2219 Rocket 2.7 19:27:31 10° S 19:32:10 40° SE 19:32:10 40° SE
Helios 1B rocket 2.5 19:30:11 20° N 19:33:03 81° WNW 19:37:16 10° SSW
Cosmos 1023 Rocket 4.3 19:30:26 10° N 19:35:29 64° ENE 19:35:33 64° E
Cosmos 407 Rocket 4.4 19:36:10 10° NW 19:41:07 47° WSW 19:46:12 10° S
Cosmos 2242 Rocket 4.0 19:39:17 10° SSW 19:43:54 66° W 19:48:27 10° N
USA 215 3.8 19:47:16 40° SE 19:47:41 40° SSE 19:53:44 10° SSW
Meteor 2-10 Rocket 4.3 19:43:09 10° S 19:46:54 42° SSE 19:46:54 42° SSE
Cosmos 1470 Rocket 4.3 19:54:09 10° NNW 19:58:25 51° W 19:59:09 45° SW
COSMOS 2428 3.1 19:58:48 10° SSW 20:04:27 60° WNW 20:06:08 42° NNW
Cosmos 2360 Rocket 4.5 20:07:21 10° SW 20:11:33 22° W 20:15:45 10° NNW
ATLAS CENTAUR R/B 4.0 20:23:10 10° SSW 20:24:32 19° SSW 20:24:32 19° SSW
Cosmos 2333 Rocket 3.8 20:38:52 10° SSW 20:41:37 29° SW 20:41:37 29° SW
Cosmos 2237 Rocket 4.2 20:42:22 10° SSW 20:44:08 21° SSW 20:44:08 21° SSW
ATLAS 2AS CENTAUR R/B 4.5 21:08:38 10° SW 21:10:28 21° SW 21:10:28 21° SW
